Regional Weather Roundup
Issued by NWS

Home | Current Version | Previous Version | Text Only | Print | Product List | Glossary Off
Versions: 1 2 3 4 5 6 7 8 9 10 11 12 13 14 15 16 17 18 19 20 21 22 23 24 25 26 27 28 29 30 31 32 33 34 35 36 37 38 39 40 41 42 43 44 45 46 47 48 49 50

000
ASUS43 KIND 080809
RWRIN

WEATHER ROUNDUP FOR INDIANA
NATIONAL WEATHER SERVICE INDIANAPOLIS IN
300 AM EST THU DEC 08 2016

NOTE: "FAIR" INDICATES FEW OR NO CLOUDS BELOW 12,000 FEET WITH NO
SIGNIFICANT WEATHER AND/OR OBSTRUCTIONS TO VISIBILITY.

* - STATION DOES NOT REPORT WEATHER SUCH AS PRECIPITATION OR FOG.

+ - STATION NOT QUALITY CONTROLLED BY THE NATIONAL WEATHER SERVICE.
    USE DATA WITH CAUTION...ESPECIALLY DEWPOINT AND RELATIVE
    HUMIDITY OBSERVATIONS.

INZ001>003-010>013-019-020-080900-
NORTHWEST INDIANA

CITY           SKY/WX    TMP DP  RH WIND       PRES   REMARKS
GARY /AIRPORT/ CLOUDY    26  16  65 W17G25    30.18R WCI  13
KNOX *+        CLOUDY    23   0  36 W14G21    30.17S WCI  11
LA PORTE +     CLOUDY    23  15  70 W14G20    30.16R WCI  11
MICHIGAN CITY+ FLURRIES  27  19  74 W12       30.16R WCI  16
MONTICELLO +   CLOUDY    24  12  61 W10       30.20R WCI  13
RENSSELAER +     N/A     27  19  74 W21       30.20R WCI  13
VALPARAISO     CLOUDY    24  15  68 W15       30.17R WCI  11

$$

LMZ046-743>745-080900-
SOUTHERN LAKE MICHIGAN

STATION/POSITION TIME  TEMP    WIND        PRES    WAVE
                       AIR SEA DIR/SP/G            HT
                 (UTC) (F)     (DEG/KT/KT) (MB)    (FT)
BURNS HARBOR     0743   27     270/ 21     1023.7R
MICHIGAN CITY    0740   26     240/ 21/ 23   N/A

$$

INZ004-005-014>016-021>024-080900-
NORTH CENTRAL INDIANA

CITY           SKY/WX    TMP DP  RH WIND       PRES   REMARKS
GOSHEN         FLURRIES  23  15  71 W17       30.13R WCI   9
LOGANSPORT +   CLOUDY    23  16  74 W15G26    30.20R WCI  10
PERU/GRISSOM   CLOUDY    24  15  69 W21       30.16R WCI   9
ROCHESTER +    MOCLDY    27  19  74 W12       30.17S WCI  16
SOUTH BEND     CLOUDY    23  16  74 SW16      30.13S WCI  10
WARSAW +       CLOUDY    23  14  68 W13       30.15R WCI  11

$$

INZ006>009-017-018-025>027-080900-
NORTHEAST INDIANA

CITY           SKY/WX    TMP DP  RH WIND       PRES   REMARKS
ANGOLA *+      CLOUDY    25  19  80 W12       30.08R WCI  14
AUBURN +       CLOUDY    27  18  69 W12G20    30.12S WCI  16
FORT WAYNE     CLOUDY    24  16  71 W22G29    30.14R WCI   9
HUNTINGTON +   CLOUDY    24  16  72 NW9G16    30.16R WCI  14
KENDALLVILLE + CLOUDY    24  18  77 W17G23    30.10S WCI  10

$$

INZ028-029-035-036-043>045-051>053-080900-
WEST CENTRAL INDIANA

CITY           SKY/WX    TMP DP  RH WIND       PRES   REMARKS
CRAWFORDSVL +  MOCLDY    23  17  78 W14       30.23R WCI  11
GREENCASTLE +  MOCLDY    27  19  74 W7        30.24R WCI  19
LAFAYETTE      CLOUDY    23  15  71 W17G24    30.23R WCI   9
TERRE HAUTE    CLOUDY    27  15  61 NW17G28   30.28R WCI  14

$$

INZ030>032-037>040-046>048-054>057-064-065-080900-
CENTRAL INDIANA

CITY           SKY/WX    TMP DP  RH WIND       PRES   REMARKS
CP ATTERBURY + MOCLDY    28  19  69 W9G17     30.22R WCI  20
FISHERS *+     CLOUDY    23  19  86 W8        30.20  WCI  14
FRANKFORT +    CLOUDY    26  18  70 NW22G29   30.22R WCI  12
GREENWOOD *+   CLOUDY    28  20  72 W9        30.21R WCI  19
INDIANAPOLIS   CLOUDY    26  18  71 W16       30.21R WCI  14
-EAGLE CREEK   CLOUDY    27  16  63 W9        30.20R WCI  18
KOKOMO +       CLOUDY    24  17  74 W15       30.19R WCI  11
MARION +       CLOUDY    24  18  77 W20G25    30.18R WCI  10
MT COMFORT *+  PTCLDY    25  18  74 W15       30.19R WCI  12
SHELBYVILLE    MOCLDY    28  18  66 W13       30.20R WCI  17
ZIONSVILLE +   CLOUDY    24  17  74 W12G20    30.20R WCI  13

$$

INZ033-034-041-042-049-050-058-059-080900-
EAST CENTRAL INDIANA

CITY           SKY/WX    TMP DP  RH WIND       PRES   REMARKS
MUNCIE         CLOUDY    26  17  68 NW16G24   30.17R WCI  14

$$

INZ060-061-067>069-081>083-085>088-080900-
SOUTHWEST INDIANA

CITY           SKY/WX    TMP DP  RH WIND       PRES   REMARKS
EVANSVILLE     CLOUDY    32  20  61 NW14      30.31R WCI  22
HUNTINGBURG *+ PTCLDY    30  21  69 NW9       30.28R WCI  22
WASHINGTON +   PTCLDY    30  23  75 NW8       30.28S WCI  22

$$

INZ062-063-066-070>080-084-089>092-080900-
SOUTH CENTRAL AND SOUTHEAST INDIANA

CITY           SKY/WX    TMP DP  RH WIND       PRES   REMARKS
BLOOMINGTON    CLOUDY    28  16  60 NW7       30.23R WCI  21
MADISON *+     MOCLDY    32  21  64 W6        30.23R WCI  26
NORTH VERNON + MOCLDY    32  27  80 W7        30.21R WCI  26
SEYMOUR +      CLOUDY    32  18  55 W14G20    30.23R WCI  22

$$




USA.gov is the U.S. government's official web portal to all federal, state and local government web resources and services.